Content
SEND FEEDBACK

Daily
Averages
Monthly
Summary
United States of America

CONNELLSVILLE, PENNSYLVANIA


Home > North America > United States > Pennsylvania
Elevation: 384 meters     Latitude: 39 57N     Longitude: 079 39W

WEATHER
 
SELECT A DAY
Number of Records: 217,099;   Date Range: 1/1/95 - 10/22/14
 
SHARE

PRINT THIS DATA

[ ← Previous Day ]
WEATHER ALMANAC - 23 JANUARY, 2013
[ Next Day → ]
[ °F ]   °C
Weather ElementAverageHighLow
Temperature-10.1 °C-7.8 °C (2:53 pm)-15.6 °C (6:53 am)
Dewpoint-15.8 °C-10.6 °C (10:53 pm)-18.9 °C (1:53 am)
Humidity65.1 %88 % (6:53 am)45 % (12:53 pm)
Barometer1023.7 hPa1028.1 hPa (8:53 am)1017.9 hPa (10:18 pm)
Wind Speed6.8 km/h18.5 km/h (3:53 pm)
Weather ElementAverage
Visibility12.4 km
Wind DirectionE (90 °)

Weather ElementTotal
Precipitation---
Heating Degree Days30.1 (Base 18.3)
Averaged from 28 records on 23 January, 2013
WEATHER CONDITIONS BREAKOUT
WIND DIRECTION BREAKOUT
WEATHER BY HOUR - 23 JANUARY, 2013
[ °F ]   °C
Local TimeTemperatureDewpointHumidityBarometerVisibilityWind DirectionWind SpeedGust SpeedPrecipitationEventsConditions
1:53 AM-12.8 °C-18.9 °C61 %1027.1 hPa16.1 kmCalmClear
2:53 AM-12.8 °C-18.9 °C61 %1027.4 hPa16.1 kmWest (280°)7.4 km/hClear
3:53 AM-13.3 °C-18.3 °C67 %1027.4 hPa16.1 kmCalmScattered Clouds
4:53 AM-13.3 °C-18.3 °C67 %1027.4 hPa16.1 kmCalmMostly Cloudy
5:53 AM-13.9 °C-17.8 °C73 %1027.4 hPa16.1 kmCalmScattered Clouds
6:53 AM-15.6 °C-17.2 °C88 %1027.8 hPa16.1 kmCalmClear
7:53 AM-14.4 °C-17.2 °C80 %1027.8 hPa16.1 kmSSW (200°)7.4 km/hClear
8:53 AM-12.2 °C-17.2 °C67 %1028.1 hPa16.1 kmVariable9.3 km/hClear
9:53 AM-11.1 °C-17.8 °C59 %1027.8 hPa16.1 kmCalmOvercast
10:53 AM-10 °C-17.8 °C54 %1027.4 hPa16.1 kmSW (220°)16.7 km/hOvercast
11:53 AM-10 °C-18.3 °C52 %1026.4 hPa16.1 kmVariable11.1 km/hOvercast
12:53 PM-8.9 °C-18.9 °C45 %1025.4 hPa16.1 kmSW (230°)9.3 km/hOvercast
1:53 PM-8.3 °C-18.3 °C45 %1024.4 hPa16.1 kmVariable9.3 km/hOvercast
2:53 PM-7.8 °C-17.8 °C45 %1024 hPa16.1 kmVariable9.3 km/hOvercast
3:53 PM-7.8 °C-17.8 °C45 %1023.7 hPa16.1 kmWSW (240°)18.5 km/hOvercast
4:53 PM-7.8 °C-17.8 °C45 %1023.4 hPa16.1 kmVariable7.4 km/hOvercast
5:53 PM-7.8 °C-17.8 °C45 %1022.4 hPa16.1 kmWSW (240°)16.7 km/hOvercast
6:53 PM-7.8 °C-17.2 °C48 %1022 hPa16.1 kmSW (230°)7.4 km/hOvercast
7:53 PM-7.8 °C-14.4 °C60 %1021.7 hPa9.7 kmWSW (240°)16.7 km/h0 mmSnowLight Snow
8:13 PM-8 °C-13 °C68 %1019.3 hPa6.4 kmVariable7.4 km/h0 mmSnowLight Snow
8:38 PM-8 °C-12 °C73 %1019.3 hPa6.4 kmWSW (240°)14.8 km/h0 mmSnowLight Snow
8:53 PM-8.3 °C-12.2 °C74 %1021.3 hPa8 kmWSW (240°)13 km/h0 mmSnowLight Snow
9:20 PM-9 °C-12 °C79 %1018.6 hPa4.8 kmCalm0 mmSnowLight Snow
9:28 PM-9 °C-12 °C79 %1018.6 hPa4 kmCalm0 mmSnowLight Snow
9:50 PM-9 °C-11 °C86 %1018.3 hPa4.8 kmCalm0 mmSnowLight Snow
9:53 PM-8.9 °C-11.1 °C84 %1020.7 hPa4.8 kmCalm0 mmSnowLight Snow
10:18 PM-9 °C-11 °C86 %1017.9 hPa4 kmCalm0 mmSnowLight Snow
10:53 PM-8.9 °C-10.6 °C88 %1020 hPa4 kmSSE (160°)5.6 km/h0 mmSnowLight Snow
Hourly data recorded from KMGW, located 0 kilometers away from Connellsville, Pennsylvania







STORIES FROM OUR PARTNERS